Topeka, KS

5:45 PM CST on November 20, 2019 (GMT -0600)
Billard Municipal

Weather History for KTOP - September, 2019

Change the Weather History Date:

Sunday, September 8, 2019

  Actual Average Record
Temperature  
Mean Temperature 77 °F 72 °F  
Max Temperature 85 °F 84 °F 104 °F (2013)
Min Temperature 69 °F 60 °F 41 °F (1986)
Degree Days  
Heating Degree Days 0 1  
Month to date heating degree days 0 3  
Since 1 July heating degree days 0 5  
Cooling Degree Days 12 7  
Month to date cooling degree days 98 67  
Year to date cooling degree days 1344 1295  
Growing Degree Days 26 (Base 50)    
Moisture  
Dew Point 70 °F    
Average Humidity 80    
Maximum Humidity 97    
Minimum Humidity 62    
Precipitation  
Precipitation 0.02 in 0.13 in 4.35 in (1989)
Month to date precipitation 0.04 0.97  
Year to date precipitation 40.93 27.54  
Snow  
Snow 0.00 in 0.00 in T in (2008)
Month to date snowfall 0.0 0.0  
Year to date snowfall 18.5 11.3  
Since 1 July snowfall T 0.0  
Snow Depth 0.00 in    
Sea Level Pressure  
Sea Level Pressure 29.89 in    
Wind  
Wind Speed 6 mph (East)    
Max Wind Speed 14 mph    
Max Gust Speed 18 mph    
Visibility 10 miles    
Events Rain , Thunderstorm    
T = Trace of Precipitation, MM = Missing Value Source: NWS Daily Summary

Daily Weather History Graph

Daily Weather History Graph

Search for Another Location

Airport or City:

Astronomy

Sep. 08, 2019 Rise Set
Actual Time 6:57 AM CDT 7:42 PM CDT
Civil Twilight 6:30 AM CDT 8:09 PM CDT
Nautical Twilight 5:58 AM CDT 8:41 PM CDT
Astronomical Twilight 5:25 AM CDT 9:14 PM CDT
Moon 4:49 PM CDT (9/8) 1:40 AM CDT (9/8)
Length of Visible Light 13h 39m
Length of Day
12h 44m
Waxing Gibbous, 75% of the Moon is Illuminated
Sep 8
Waxing Gibbous
Sep 13
Full
Sep 21
Last Quarter
Sep 28
New
Oct 5
First Quarter

Hourly Weather History & Observations

Time (CDT) Temp. Heat Index Dew Point Humidity Pressure Visibility Wind Dir Wind Speed Gust Speed Precip Events Conditions
1:42 AM 73.9 °F - 71.1 °F 91% 29.91 in 10.0 mi NE 8.1 mph - 0.00 in Rain , Thunderstorm Light Rain
1:53 AM 73.9 °F - 70.0 °F 87% 29.91 in 8.0 mi NE 8.1 mph - 0.00 in Rain Light Rain
2:27 AM 72.0 °F - 68.0 °F 87% 29.91 in 10.0 mi ENE 9.2 mph - 0.02 in Rain , Thunderstorm Light Rain
2:42 AM 71.1 °F - 68.0 °F 90% 29.91 in 10.0 mi ENE 9.2 mph - 0.02 in   Mostly Cloudy
2:53 AM 71.1 °F - 68.0 °F 90% 29.88 in 10.0 mi ENE 9.2 mph - 0.02 in   Mostly Cloudy
3:41 AM 70.0 °F - 66.0 °F 87% 29.90 in 10.0 mi East 10.4 mph - N/A Thunderstorm Mostly Cloudy
3:53 AM 70.0 °F - 66.0 °F 87% 29.87 in 10.0 mi East 9.2 mph - N/A   Overcast
4:20 AM 70.0 °F - 66.9 °F 90% 29.89 in 10.0 mi East 8.1 mph - N/A   Mostly Cloudy
4:33 AM 69.1 °F - 66.9 °F 93% 29.89 in 10.0 mi East 8.1 mph - N/A   Mostly Cloudy
4:53 AM 70.0 °F - 66.9 °F 90% 29.87 in 10.0 mi East 6.9 mph - N/A   Overcast
5:53 AM 70.0 °F - 66.9 °F 90% 29.87 in 10.0 mi ESE 4.6 mph - N/A   Overcast
6:53 AM 70.0 °F - 68.0 °F 93% 29.91 in 10.0 mi NE 5.8 mph - N/A   Overcast
7:11 AM 70.0 °F - 68.0 °F 93% 29.93 in 10.0 mi ENE 4.6 mph - 0.00 in   Partly Cloudy
7:53 AM 70.0 °F - 66.9 °F 90% 29.91 in 8.0 mi ENE 3.5 mph - 0.00 in   Clear
8:53 AM 72.0 °F - 69.1 °F 91% 29.90 in 10.0 mi NE 4.6 mph - N/A   Clear
9:53 AM 75.0 °F - 69.1 °F 82% 29.92 in 10.0 mi Calm Calm - N/A   Clear
10:53 AM 78.1 °F - 70.0 °F 76% 29.91 in 10.0 mi East 4.6 mph - N/A   Clear
11:53 AM 80.1 °F 82.3 °F 66.9 °F 64% 29.91 in 10.0 mi SE 5.8 mph - N/A   Clear
12:53 PM 80.1 °F 82.7 °F 68.0 °F 67% 29.91 in 10.0 mi SSE 8.1 mph - N/A   Clear
1:53 PM 82.0 °F 85.5 °F 69.1 °F 65% 29.90 in 10.0 mi SE 5.8 mph - N/A   Clear
2:53 PM 82.0 °F 85.5 °F 69.1 °F 65% 29.89 in 10.0 mi SSE 8.1 mph - N/A   Clear
3:53 PM 84.0 °F 89.0 °F 71.1 °F 65% 29.88 in 10.0 mi East 5.8 mph - N/A   Clear
4:53 PM 84.9 °F 91.4 °F 73.0 °F 67% 29.87 in 10.0 mi ESE 9.2 mph - N/A   Clear
5:53 PM 82.9 °F 89.4 °F 73.9 °F 74% 29.87 in 10.0 mi East 5.8 mph - N/A   Clear
6:53 PM 82.0 °F 87.9 °F 73.9 °F 76% 29.87 in 10.0 mi East 4.6 mph - N/A   Clear
7:53 PM 79.0 °F - 73.9 °F 84% 29.87 in 10.0 mi East 5.8 mph - N/A   Clear
8:53 PM 78.1 °F - 73.9 °F 87% 29.88 in 9.0 mi East 4.6 mph - N/A   Clear
9:53 PM 77.0 °F - 73.9 °F 90% 29.90 in 8.0 mi East 5.8 mph - N/A   Clear
10:53 PM 77.0 °F - 73.9 °F 90% 29.90 in 7.0 mi East 5.8 mph - N/A   Clear
11:53 PM 75.9 °F - 73.0 °F 91% 29.91 in 9.0 mi East 3.5 mph - N/A   Clear